User: anonymous   Login
Location: Newark
(43.4306°N, 0.3089°E)
Time: 09:38:12
(UTC+00:00)
Language:

Altair - Orbit

View from above orbital plane
View from above orbital plane
View from above satellite
View from above satellite

Ground track
Ground track

The orbit data is extracted from the following two-line orbital elements,

1    50U 60009B   19235.60217330 -.00000114 +00000-0 -26406-3 0  9991
2    50 047.2331 328.8027 0113972 155.3134 205.3166 12.20109576633730
Epoch (UTC): 23 August 2019 14:27:07
Eccentricity: 0.0113972
inclination: 47.2331°
perigee height: 1501 km
apogee height: 1683 km
right ascension of ascending node: 328.8027°
argument of perigee: 155.3134°
revolutions per day: 12.20109576
mean anomaly at epoch: 205.3166°
orbit number at epoch: 63373

The dashed part of the orbit path shows where the satellite is in the earth's shadow,  

DLR